Scott AFB, IL

8:48 AM CST on February 23, 2017 (GMT -0600)
Scott Air Force Base-Midamerica

Weather History for KBLV - November, 2012

Change the Weather History Date:

Monday, November 12, 2012

  Actual Average Record
Temperature  
Mean Temperature 37 °F -  
Max Temperature 45 °F 55 °F 78 °F (1989)
Min Temperature 29 °F 34 °F 15 °F (1976)
Degree Days  
Heating Degree Days 28    
Moisture  
Dew Point 28 °F    
Average Humidity 73    
Maximum Humidity 100    
Minimum Humidity 37    
Precipitation  
Precipitation 0.01 in - - ()
Sea Level Pressure  
Sea Level Pressure 30.26 in    
Wind  
Wind Speed 13 mph (WNW)    
Max Wind Speed 20 mph    
Max Gust Speed 28 mph    
Visibility 10 miles    
Events Rain    
Averages and records for this station are not official NWS values.
T = Trace of Precipitation, MM = Missing Value Source: NWS Daily Summary

Daily Weather History Graph

Daily Weather History Graph

Search for Another Location

Airport or City:

Trip Planner

Search our weather history database for the weather conditions in past years. The results will help you decide how hot, cold, wet, or windy it might be!

Date:

Astronomy

Nov. 12, 2012 Rise Set
Actual Time 6:38 AM CST 4:48 PM CST
Civil Twilight 6:10 AM CST 5:16 PM CST
Nautical Twilight 5:38 AM CST 5:48 PM CST
Astronomical Twilight 5:07 AM CST 6:19 PM CST
Moon 5:04 AM CST (11/12) 3:53 PM CST (11/12)
Length of Visible Light 11h 06m
Length of Day
10h 09m
Waning Crescent, 2% of the Moon is Illuminated
Nov 12
Waning Crescent
Nov 13
New
Nov 20
First Quarter
Nov 28
Full
Dec 6
Last Quarter

Hourly Weather History & Observations

Time (CST) Temp. Windchill Dew Point Humidity Pressure Visibility Wind Dir Wind Speed Gust Speed Precip Events Conditions
12:21 AM 41.0 °F 33.1 °F 41.0 °F 100% 30.09 in 10.0 mi WNW 15.0 mph - N/A   Overcast
12:22 AM 41.0 °F 34.3 °F 41.0 °F 100% 30.09 in 10.0 mi WNW 11.5 mph - N/A   Overcast
12:24 AM 41.0 °F 34.7 °F 41.0 °F 100% 30.09 in 10.0 mi WNW 10.4 mph - N/A Rain Light Rain
12:41 AM 39.2 °F 31.2 °F 37.4 °F 93% 30.08 in 10.0 mi WNW 13.8 mph 21.9 mph N/A Rain Light Rain
12:55 AM 38.7 °F 31.8 °F 37.6 °F 96% 30.09 in 10.0 mi WNW 10.4 mph - 0.01 in Rain Light Rain
1:37 AM 37.4 °F 27.2 °F 35.6 °F 93% 30.12 in 10.0 mi NW 19.6 mph 27.6 mph N/A   Overcast
1:44 AM 37.4 °F 27.5 °F 35.6 °F 93% 30.12 in 10.0 mi WNW 18.4 mph 25.3 mph N/A Rain Light Rain
1:55 AM 36.9 °F 27.1 °F 36.0 °F 97% 30.14 in 10.0 mi WNW 17.3 mph 25.3 mph 0.00 in Rain Light Rain
2:07 AM 37.4 °F 28.2 °F 35.6 °F 93% 30.16 in 10.0 mi WNW 16.1 mph 24.2 mph N/A Rain Light Rain
2:21 AM 37.4 °F 27.5 °F 33.8 °F 87% 30.17 in 10.0 mi NW 18.4 mph 25.3 mph N/A   Overcast
2:43 AM 35.6 °F 26.6 °F 33.8 °F 93% 30.16 in 10.0 mi NW 13.8 mph - N/A Rain Light Rain
2:52 AM 35.6 °F 27.5 °F 33.8 °F 93% 30.14 in 10.0 mi NW 11.5 mph - N/A   Overcast
2:55 AM 36.3 °F 28.9 °F 33.6 °F 90% 30.14 in 10.0 mi NW 10.4 mph - 0.00 in Rain Light Rain
3:37 AM 35.6 °F 25.2 °F 32.0 °F 87% 30.19 in 10.0 mi WNW 18.4 mph - N/A   Overcast
3:55 AM 35.4 °F 25.6 °F 30.4 °F 82% 30.20 in 10.0 mi WNW 16.1 mph - 0.00 in   Overcast
4:09 AM 33.8 °F 22.8 °F 26.6 °F 75% 30.20 in 10.0 mi NW 18.4 mph 24.2 mph N/A   Overcast
4:22 AM 33.8 °F 22.5 °F 26.6 °F 75% 30.21 in 10.0 mi NW 19.6 mph - N/A   Overcast
4:38 AM 32.0 °F 22.1 °F 26.6 °F 80% 30.22 in 10.0 mi NW 13.8 mph 20.7 mph N/A   Mostly Cloudy
4:55 AM 32.5 °F 22.3 °F 25.7 °F 76% 30.23 in 10.0 mi WNW 15.0 mph - N/A   Scattered Clouds
5:55 AM 30.7 °F 21.4 °F 24.1 °F 76% 30.26 in 10.0 mi WNW 11.5 mph - N/A   Clear
6:55 AM 29.8 °F 19.8 °F 21.9 °F 72% 30.30 in 10.0 mi WNW 12.7 mph - N/A   Clear
7:55 AM 31.5 °F 21.8 °F 20.8 °F 65% 30.33 in 10.0 mi WNW 12.7 mph - N/A   Clear
8:55 AM 33.4 °F 24.3 °F 20.3 °F 59% 30.35 in 10.0 mi WNW 12.7 mph - N/A   Clear
9:55 AM 36.9 °F 29.1 °F 21.2 °F 53% 30.36 in 10.0 mi WNW 11.5 mph - N/A   Clear
10:55 AM 40.3 °F 33.9 °F 21.9 °F 48% 30.36 in 10.0 mi West 10.4 mph - N/A   Clear
11:55 AM 43.0 °F 35.1 °F 21.4 °F 42% 30.35 in 10.0 mi WNW 17.3 mph 24.2 mph N/A   Clear
12:55 PM 43.9 °F 37.5 °F 20.1 °F 39% 30.33 in 10.0 mi West 12.7 mph - N/A   Clear
1:55 PM 44.8 °F 37.4 °F 19.8 °F 37% 30.32 in 10.0 mi West 17.3 mph 24.2 mph N/A   Clear
2:55 PM 45.3 °F 38.4 °F 20.5 °F 37% 30.33 in 10.0 mi West 16.1 mph - N/A   Clear
3:55 PM 44.6 °F 38.1 °F 20.1 °F 38% 30.35 in 10.0 mi West 13.8 mph - N/A   Clear
4:55 PM 42.4 °F 37.5 °F 21.2 °F 43% 30.36 in 10.0 mi West 8.1 mph - N/A   Clear
5:55 PM 39.6 °F 34.7 °F 21.7 °F 49% 30.39 in 10.0 mi West 6.9 mph - N/A   Clear
6:55 PM 38.1 °F 35.7 °F 23.5 °F 56% 30.40 in 10.0 mi WSW 3.5 mph - N/A   Clear
7:55 PM 36.5 °F 32.7 °F 24.3 °F 61% 30.43 in 10.0 mi West 4.6 mph - N/A   Clear
8:55 PM 33.8 °F - 25.0 °F 70% 30.43 in 10.0 mi Calm Calm - N/A   Clear
9:55 PM 31.8 °F - 25.2 °F 76% 30.44 in 10.0 mi Calm Calm - N/A   Clear
10:55 PM 31.5 °F - 23.7 °F 73% 30.45 in 10.0 mi Calm Calm - N/A   Clear
11:55 PM 30.6 °F - 24.6 °F 79% 30.46 in 10.0 mi Calm Calm - N/A   Clear